Regional Weather Roundup
Issued by NWS

Home | Current Version | Previous Version | Graphics & Text | Print | Product List | Glossary Off
Versions: 1 2 3 4 5 6 7 8 9 10 11 12 13 14 15 16 17 18 19 20 21 22 23 24 25 26 27 28 29 30 31 32 33 34 35 36 37 38 39 40 41 42 43 44 45 46 47 48 49 50

000
ASUS43 KDTX 301410
RWRMI
MICHIGAN HOURLY REGIONAL WEATHER ROUNDUP
NATIONAL WEATHER SERVICE DETROIT/PONTIAC MI
1000 AM EDT SUN AUG 30 2015

NOTE: "FAIR" INDICATES FEW OR NO CLOUDS BELOW 12,000 FEET WITH NO
SIGNIFICANT WEATHER AND/OR OBSTRUCTION TO VISIBILITY.

MIZ047>049-052>055-059>063-066>070-074>076-081>083-301500-
SOUTHEAST LOWER MICHIGAN

CITY           SKY/WX    TMP DP  RH WIND       PRES   REMARKS
ADRIAN         CLOUDY    71  68  90 S6        30.09R FOG
ALMA           CLOUDY    66  66  98 CALM      30.08S FOG
ANN ARBOR      CLOUDY    69  66  90 SW3       30.08S FOG
BAD AXE        CLOUDY    68  64  89 CALM      30.09S
CARO           CLOUDY    67  65  96 CALM      30.08R FOG
DETROIT CITY   PTSUNNY   73  67  81 SW9       30.08S
DETROIT        CLOUDY    72  67  84 S8        30.08S
FLINT          CLOUDY    73  67  81 S5        30.07F HAZE
GROSSE ILE     CLOUDY    72  68  88 S9        30.07S
HILLSDALE      PTSUNNY   70  70  99 CALM      30.09S FOG
HOWELL         CLOUDY    68  67  94 S5        30.09R

CITY           SKY/WX    TMP DP  RH WIND       PRES   REMARKS
JACKSON        CLOUDY    70  67  90 S5        30.08S FOG
LAMBERTVILLE   PTSUNNY   74  69  85 SE5       30.08S
LANSING        CLOUDY    68  66  93 S5        30.08S FOG
LAPEER         PTSUNNY   70  67  92 S6        30.08S
MASON          CLOUDY    69  65  86 CALM      30.08S FOG
MONROE         CLOUDY    72  68  88 S5        30.07S
MT. CLEMENS    CLOUDY    70  69  97 CALM      30.07R
PONTIAC        CLOUDY    69  66  90 CALM      30.08S FOG
PORT HOPE        N/A     68  65  90 CALM      30.08R
PORT HURON     CLOUDY    68  68 100 CALM      30.09S FOG
TRI CITIES     CLOUDY    71  66  84 CALM      30.08R HAZE
MIDLAND        CLOUDY    68  65  90 CALM      30.07S
TROY           CLOUDY    70  69  96 CALM      30.10S FOG
SAGINAW HB     CLOUDY    68  66  94 CALM      30.07R FOG
$$
MIZ043>046-050>051-056>058-064>065-071>073-077>080-301500-
SOUTHWEST LOWER MICHIGAN

CITY           SKY/WX    TMP DP  RH WIND       PRES   REMARKS
BATTLE CREEK   CLOUDY    68  67  96 S3        30.08S FOG
BENTON HARBOR  PTSUNNY   70  66  87 W5        30.06S
BIG RAPIDS     CLOUDY    66  64  93 E5        30.08S
COLDWATER      CLOUDY    70  68  94 S3        30.08S FOG
FREMONT        CLOUDY    65  65 100 E3        30.07S FOG
HOLLAND        FOG       69  67  93 CALM      30.07R VSB 1
GRAND RAPIDS   FOG       68  67  96 E3        30.07R VSB 1/4
IONIA          CLOUDY    67  67 100 CALM      30.07R FOG
KALAMAZOO      CLOUDY    69  67  93 CALM      30.07S FOG
LUDINGTON      CLOUDY    71  66  84 CALM      30.08S
MARSHALL       CLOUDY    69  67  94 S3        30.07S FOG
MOUNT PLEASANT CLOUDY    67  65  91 N3        30.08S FOG
MUSKEGON       CLOUDY    67  63  87 E6        30.07S FOG
SOUTH HAVEN    PTSUNNY   70  66  87 CALM      30.06S
$$
MIZ016>042-301500-
NORTHERN LOWER MICHIGAN

CITY           SKY/WX    TMP DP  RH WIND       PRES   REMARKS
ALPENA         SUNNY     67  61  81 CALM      30.09S
BEAVER ISLAND  SUNNY     68  62  80 SW8       30.06R
BELLAIRE       FOG       60  59  96 CALM      30.08S VSB 1/4
CADILLAC       SUNNY     65  62  89 CALM      30.08S
CHARLEVOIX     CLOUDY    64  64  98 S3        30.09S
FRANKFORT      CLOUDY    65  63  93 CALM      30.07F
GAYLORD        SUNNY     61  61 100 CALM      30.09S
GRAYLING       FOG       58  58  99 CALM      30.10S VSB 1/4
HARBOR SPRINGS FOG       60  60  98 CALM      30.07F VSB 1
HOUGHTON LAKE  CLOUDY    62  60  93 E3        30.09F
MANISTEE       SUNNY     63  59  88 CALM      30.09S
OSCODA         CLOUDY    65  62  91 CALM      30.09R
PELLSTON       MOSUNNY   65  61  87 CALM      30.07S
ROGERS CITY    SUNNY     68  61  80 CALM      30.08S
TRAVERSE CITY  PTSUNNY   66  60  81 CALM      30.07S HAZE
$$
MIZ007>008-015-301500-
EASTERN UPPER MICHIGAN

CITY           SKY/WX    TMP DP  RH WIND       PRES   REMARKS
KINROSS        CLOUDY    63  63 100 SW8       30.05S
MACKINAC ISLAN CLOUDY    64  62  94 S3        30.06S
NEWBERRY       MOSUNNY   65  62  90 SW10      30.04R
S. S. MARIE    CLOUDY    62  60  93 S3        30.05S FOG
MUNISING         N/A     71  62  73 S6G16     30.00S
$$
MIZ004>006-011>014-085-301500-
CENTRAL UPPER MICHIGAN

CITY           SKY/WX    TMP DP  RH WIND       PRES   REMARKS
MANISTIQUE     SUNNY     65  63  90 S8        30.04R
ESCANABA       SUNNY     64  61  88 SW6       30.03R
MENOMINEE      SUNNY     61  57  88 SW5       30.05S
SAWYER-GWINN   MOSUNNY   61  61 100 SW7       30.03S
$$
MIZ001>003-009>011-084-301500-
WESTERN UPPER MICHIGAN

CITY           SKY/WX    TMP DP  RH WIND       PRES   REMARKS
IRON MOUNTAIN  CLOUDY    63  60  90 W3        30.03
HOUGHTON       MOSUNNY   65  60  84 S5        29.96
IRONWOOD       MOSUNNY   66  63  88 SW9G17    29.96S
$$

ABBREVIATIONS USED IN REMARKS
   TC - TEMPERATURE IN CELSIUS
  WCI - WIND CHILL INDEX
   HX - HEAT INDEX
  VSB - VISIBILITY



USA.gov is the U.S. government's official web portal to all federal, state and local government web resources and services.